Overview Statistics Trail Chart Weather Telemetry Raw packets
 

This is the latest recevied weather packets stored in our database for station/object W4UWO. If no packets are shown the sender has not sent any weather packets the latest 10 day(s).

<< 22 23 24 25 26 27 28 >>
Time Temp. Humidity Pressure Rain* Wind** Luminosity Snow
1788468737 38.33° C 34% 1015.7 hPa 0 mm - 518 W/m² -
1788468433 37.78° C 35% 1015.8 hPa 0 mm - 536 W/m² -
1788468129 38.89° C 33% 1015.9 hPa 0 mm - 559 W/m² -
1788467825 38.89° C 34% 1015.9 hPa 0 mm - 566 W/m² -
1788467520 38.89° C 35% 1016.1 hPa 0 mm - 585 W/m² -
1788467214 38.33° C 34% 1015.9 hPa 0 mm - 596 W/m² -
1788466910 38.33° C 34% 1016.1 hPa 0 mm - 616 W/m² -
1788466610 38.33° C 36% 1016.1 hPa 0 mm - 626 W/m² -
1788466309 37.22° C 35% 1016.4 hPa 0 mm - 644 W/m² -
1788466004 37.78° C 35% 1016.1 hPa 0 mm - 654 W/m² -
1788465700 38.33° C 34% 1016.4 hPa 0 mm - 666 W/m² -
1788465395 38.33° C 35% 1016.4 hPa 0 mm - 688 W/m² -
1788465091 38.33° C 34% 1016.5 hPa 0 mm - 701 W/m² -
1788464786 37.78° C 35% 1016.5 hPa 0 mm - 704 W/m² -
1788464486 38.33° C 36% 1016.8 hPa 0 mm - 711 W/m² -
1788464182 37.78° C 36% 1016.5 hPa 0 mm - 719 W/m² -
1788463877 38.33° C 37% 1016.7 hPa 0 mm - 728 W/m² -
1788463574 38.33° C 36% 1016.5 hPa 0 mm - 736 W/m² -
1788463274 37.78° C 37% 1016.8 hPa 0 mm - 747 W/m² -
1788462970 37.78° C 38% 1016.8 hPa 0 mm - 747 W/m² -
1788462665 38.33° C 37% 1016.6 hPa 0 mm - 766 W/m² -
1788462365 38.33° C 36% 1017 hPa 0 mm - 768 W/m² -
1788462065 37.78° C 37% 1016.8 hPa 0 mm - 781 W/m² -
1788461760 37.78° C 37% 1017 hPa 0 mm - 786 W/m² -
1788461455 37.78° C 38% 1016.9 hPa 0 mm - 788 W/m² -

* Rain latest hour (hover to see other rain measurements)
** Current wind speed in m/s (hover to see current wind gust speed)